Wind_Speed
42 42 41 40 40 39 38 37 36 35 34 33 32 30 29 28 27 26 25 23 22 21 20 19 18 17 16 15 14 14 13 14 15 18 21 23 27 30 33 35 38 40 41 42 42 43 43 43 42 41 40 40 40 39 39 38 37 37 36 35 35 34 33 33 32 32 33 33 33 32 31 30 29 28 27 26 26 25 25 25 25 27 28 28 28 28 29 28
44 44 43 42 42 42 41 40 38 37 36 35 34 33 32 31 30 29 28 27 26 25 23 22 21 20 19 18 17 16 16 15 16 17 17 18 22 25 28 31 33 36 38 40 41 42 42 42 42 42 42 41 41 40 40 39 39 38 38 36 36 35 34 35 34 33 33 33 32 31 30 29 28 26 25 25 24 22 22 23 25 27 27 27 27 27 27 27
47 46 46 45 44 44 43 42 41 40 39 38 37 36 35 34 33 32 31 30 30 28 27 25 24 23 22 22 20 19 18 18 18 19 17 17 19 21 25 28 30 32 34 36 38 40 41 42 42 42 42 42 42 41 41 40 40 39 38 37 36 35 35 35 35 33 32 31 30 29 28 27 26 24 22 22 21 20 21 22 24 26 26 26 26 26 27 26
49 48 48 47 46 46 46 45 44 42 41 40 39 38 37 37 36 35 34 33 32 32 31 29 28 27 26 25 24 23 21 20 21 21 18 18 19 20 22 24 25 27 29 31 33 36 38 39 40 41 42 42 42 41 40 40 39 38 38 36 36 35 35 35 34 33 32 30 28 27 27 26 23 19 18 19 19 20 21 22 23 25 25 25 25 25 26 25
51 51 50 49 48 48 48 47 46 45 44 43 42 41 40 39 38 38 37 36 35 35 35 33 31 30 29 29 27 26 24 23 25 23 21 20 21 21 22 21 21 23 25 27 28 31 34 35 36 38 39 40 40 39 39 38 38 37 36 36 35 34 34 33 32 32 31 29 27 27 26 24 19 16 16 18 18 19 19 21 23 24 24 24 24 25 25 24
54 53 53 52 51 50 50 49 48 48 47 46 44 43 42 42 41 41 40 39 38 37 38 37 36 34 33 32 31 30 27 26 28 27 24 23 23 23 24 23 23 23 25 25 24 27 29 31 33 34 35 36 37 36 37 37 37 36 36 35 34 33 32 31 30 29 29 27 26 26 24 20 17 16 17 18 18 18 19 21 22 23 23 23 23 24 24 22
56 55 55 54 53 52 52 51 50 50 49 49 48 46 45 44 44 43 43 42 41 40 40 40 40 38 36 35 34 33 31 30 31 30 28 26 26 26 26 26 25 25 26 25 24 26 27 28 29 29 31 33 33 33 35 35 34 35 34 33 32 31 29 28 26 25 25 24 22 21 20 17 15 16 19 19 18 18 20 21 22 22 22 22 22 23 22 20
58 57 57 56 55 54 54 53 53 52 52 51 51 50 48 47 47 46 46 45 44 43 43 43 43 42 41 39 38 36 35 35 34 34 32 30 29 29 29 29 28 27 26 25 25 26 27 28 27 27 29 29 28 29 31 32 31 31 30 29 28 28 26 25 23 21 21 20 18 17 16 15 15 16 19 19 18 18 21 21 21 21 21 21 21 22 21 19
58 58 58 57 57 56 56 56 55 55 54 54 53 53 51 50 50 49 48 48 47 46 45 46 46 45 44 43 42 40 39 38 38 37 36 34 33 32 32 32 30 28 28 27 27 28 29 29 26 25 25 24 24 26 28 28 26 25 25 25 24 24 23 22 21 20 19 18 16 15 16 16 16 17 18 19 19 20 20 20 20 20 20 20 20 21 20 18
59 59 59 59 58 58 58 58 58 58 57 56 56 56 55 53 53 52 51 51 50 49 49 49 48 49 48 47 46 43 42 42 41 40 39 38 37 36 35 34 33 32 30 30 30 31 31 28 25 24 23 23 24 26 28 26 22 23 24 23 22 21 22 22 21 20 18 17 16 15 16 17 17 16 18 19 20 20 18 18 19 19 19 19 20 20 19 18
61 61 61 60 60 60 60 60 60 60 60 59 59 58 58 57 56 55 54 53 53 52 52 51 51 52 51 51 50 46 45 46 45 44 43 42 41 40 38 37 36 35 34 33 33 33 32 28 25 25 25 27 26 27 30 25 21 24 23 22 22 21 22 22 21 19 18 17 15 16 17 17 16 15 17 20 20 19 17 17 18 18 19 19 19 20 19 18
63 63 63 63 62 62 62 62 62 62 62 62 62 61 61 60 59 59 57 57 56 55 54 54 54 54 54 56 53 49 49 49 48 48 47 44 43 44 42 40 39 39 38 37 36 35 34 31 28 28 29 28 27 28 30 24 22 23 22 23 23 22 24 23 20 19 17 16 15 16 17 17 15 15 18 19 18 17 17 17 18 18 18 18 18 19 18 17
64 65 65 65 65 65 65 65 64 64 64 64 64 64 63 63 63 62 61 61 60 58 58 57 57 57 57 60 56 52 52 52 53 53 50 46 45 46 46 44 42 42 41 40 39 38 36 34 32 33 30 28 29 30 31 26 24 24 24 25 24 26 27 23 21 19 18 16 15 16 18 18 16 15 17 19 18 17 17 17 17 17 17 17 18 18 18 17
64 65 65 66 66 66 67 67 67 66 66 65 65 65 65 66 66 66 65 64 63 62 61 60 60 59 60 63 59 54 55 56 56 55 51 49 47 48 50 48 46 45 45 44 42 41 40 38 37 35 32 33 33 32 32 29 27 27 28 28 28 30 28 23 21 20 19 18 15 16 19 19 17 16 17 18 19 18 17 17 17 16 16 17 18 18 18 17
65 65 66 66 66 67 67 68 68 68 68 68 68 67 67 68 68 68 68 67 66 65 64 63 63 62 64 66 61 56 59 59 59 57 54 53 52 52 53 52 50 48 48 47 45 44 43 42 41 40 38 38 35 33 34 32 31 30 30 32 33 32 28 23 23 22 21 19 17 17 18 21 20 18 17 18 20 19 18 18 17 16 16 17 18 18 17 16
68 68 68 68 68 68 68 68 69 69 69 69 69 69 69 69 70 70 70 70 68 66 66 66 66 65 67 69 64 59 61 61 61 59 58 58 57 55 54 54 55 53 52 51 49 47 45 44 45 45 43 40 36 37 37 35 34 34 36 37 36 33 28 26 25 24 23 20 19 17 17 22 24 21 19 19 20 20 18 18 17 17 16 16 17 18 17 16
72 72 72 72 71 71 71 71 71 71 70 71 70 70 70 70 71 72 72 71 69 68 68 68 68 68 69 71 68 63 62 63 63 62 62 62 59 58 56 56 58 57 55 52 50 49 47 47 48 48 46 43 42 42 40 38 40 41 42 42 38 34 30 29 28 26 24 23 22 18 17 23 27 26 22 20 20 20 19 18 17 17 16 16 17 18 18 17
77 77 77 76 75 75 75 74 74 74 74 73 72 72 71 71 72 74 75 72 70 70 69 70 70 70 72 72 70 67 65 64 65 64 65 65 62 60 59 59 59 59 57 54 52 52 50 50 51 50 48 47 46 45 44 46 47 46 45 44 39 34 31 31 31 28 26 26 24 21 19 23 28 30 27 21 20 20 20 19 17 17 16 16 16 17 18 17
82 82 81 81 80 79 79 79 78 78 78 77 76 75 74 74 74 76 77 73 71 72 71 71 71 72 73 74 72 69 67 66 66 67 68 68 65 63 62 61 59 59 59 56 55 55 54 53 52 49 49 50 52 51 52 53 51 48 47 45 41 37 34 34 34 31 29 29 28 25 23 24 28 32 31 24 20 21 20 19 18 17 16 16 16 16 17 18
85 86 86 86 86 85 84 84 83 82 82 81 80 79 78 77 77 79 79 74 73 74 72 72 73 74 76 75 72 70 69 68 67 68 70 71 68 65 64 62 60 60 60 60 59 58 57 55 51 51 53 56 56 54 55 55 52 50 49 47 45 41 39 38 37 35 33 33 32 30 26 26 29 32 34 28 21 21 21 19 19 18 17 17 16 16 17 17
86 87 88 89 89 89 89 89 88 87 86 86 85 83 82 81 81 83 82 78 76 76 75 74 75 76 78 77 73 70 71 70 69 70 72 72 70 67 66 64 62 61 63 64 63 61 58 54 52 55 58 59 57 56 56 56 53 51 50 49 47 45 44 43 40 39 37 36 35 33 29 29 32 33 35 31 22 21 22 20 20 19 18 18 16 16 16 16
87 88 88 89 90 89 90 91 91 91 91 91 90 88 87 86 85 86 86 83 80 79 78 78 77 78 79 79 75 71 72 73 74 73 73 73 71 70 69 67 65 65 67 68 65 62 57 54 57 61 62 60 59 58 57 57 56 53 52 51 49 49 49 46 44 42 40 39 38 36 32 32 34 34 35 33 24 23 24 22 20 19 19 19 17 17 17 16
88 89 90 91 92 91 91 92 92 92 92 93 93 93 92 91 90 90 89 89 86 83 82 81 81 81 81 82 78 73 73 76 77 77 75 75 73 73 72 70 68 69 69 68 66 63 59 59 65 66 63 62 61 60 60 59 57 54 53 52 52 53 52 50 49 46 43 42 41 39 34 33 33 32 35 35 27 25 25 24 22 20 19 19 18 18 18 17
87 88 89 91 93 93 93 93 93 93 93 93 94 94 94 95 95 94 93 93 91 89 87 86 85 85 84 84 82 77 77 79 80 80 78 76 76 75 75 73 72 71 70 68 67 65 63 67 69 65 64 64 63 62 61 59 58 56 55 54 56 57 56 55 53 47 45 44 42 40 36 33 32 31 35 37 30 26 26 26 25 21 20 20 19 18 19 18
85 88 89 90 92 93 93 93 95 95 95 94 95 95 95 95 96 96 96 96 96 94 93 91 89 88 87 87 85 82 80 82 85 84 81 79 78 77 77 76 74 72 71 70 69 67 67 70 69 65 65 65 63 62 61 60 60 58 56 58 60 60 59 58 53 48 46 45 44 42 38 34 33 33 36 38 32 28 28 29 27 23 22 21 20 19 19 19
82 85 87 88 91 93 93 93 94 95 96 96 96 97 96 96 96 96 97 97 98 98 98 97 95 93 91 89 88 86 85 86 88 87 84 82 82 80 79 77 75 73 73 72 71 68 69 71 69 67 67 65 63 62 61 61 60 59 59 62 64 62 60 59 53 48 47 47 47 44 39 36 34 34 36 37 34 30 30 30 28 26 24 22 20 20 20 19
80 82 84 85 87 90 92 93 94 95 96 96 96 97 97 97 98 98 98 98 98 98 99 100 100 99 95 93 92 91 90 91 91 90 87 85 84 83 81 78 76 75 76 76 72 67 69 72 69 67 67 66 63 61 62 63 61 62 64 65 65 62 61 61 55 50 50 51 49 44 40 38 35 34 36 36 35 33 32 33 31 28 25 22 20 20 20 20
79 80 82 83 84 86 88 90 92 94 96 97 97 97 97 98 98 99 99 100 99 99 100 100 101 101 99 98 97 95 95 95 95 93 89 88 87 85 82 80 79 79 80 78 72 69 73 74 71 70 70 67 64 64 66 65 63 66 70 67 66 65 64 63 57 52 53 52 48 44 42 39 35 36 37 35 34 36 38 36 32 28 25 22 21 21 21 20
79 80 81 82 82 83 84 86 88 90 93 95 97 98 97 98 98 99 99 100 100 101 102 102 102 102 100 101 101 100 99 99 100 97 93 92 91 88 85 84 84 84 83 80 75 75 77 76 75 74 71 68 67 70 71 67 65 70 72 68 67 66 65 64 58 54 54 50 45 45 43 39 37 38 36 34 36 41 42 38 32 28 25 23 21 21 22 22
78 80 81 81 81 81 82 82 84 87 89 91 94 96 97 98 99 99 99 100 100 101 103 104 103 103 102 101 102 101 101 101 103 102 99 97 95 93 90 89 89 88 86 82 79 79 79 79 79 76 72 70 71 73 73 69 69 73 72 68 68 67 66 66 59 56 54 46 43 46 43 40 39 37 35 37 42 44 43 39 34 29 26 23 22 21 22 22
76 78 79 80 81 81 80 80 81 83 85 87 89 92 94 96 97 99 99 100 100 101 103 104 104 104 104 103 103 102 101 102 104 105 104 102 100 98 97 96 95 91 88 85 81 80 81 82 80 75 73 73 74 75 73 71 71 74 72 69 68 67 67 66 60 56 50 42 43 46 43 40 39 38 38 41 44 43 42 41 36 31 27 24 22 21 22 23
74 76 77 78 79 80 79 79 79 79 81 83 85 87 89 92 94 96 97 100 101 101 102 104 104 104 105 105 104 104 103 103 105 105 107 107 105 103 102 101 98 93 90 87 84 83 83 83 81 77 75 75 75 75 74 72 71 72 71 69 68 67 66 63 58 53 47 43 46 48 45 41 39 41 43 44 44 43 42 42 37 33 29 25 22 21 22 24
71 72 73 74 76 76 77 78 78 79 79 81 82 83 85 87 89 91 94 97 99 100 102 104 103 103 105 104 105 106 106 106 106 106 107 108 107 107 106 103 100 96 92 90 88 87 86 85 84 79 76 75 74 74 72 70 70 70 70 68 66 65 63 59 56 52 47 46 49 51 48 43 41 46 47 44 44 43 42 40 38 36 31 27 24 22 23 25
67 67 68 69 70 71 72 74 75 76 77 78 80 82 83 83 84 86 89 92 95 97 100 102 103 104 104 104 104 106 107 108 109 108 107 108 108 108 108 106 105 101 97 95 94 92 89 87 84 79 76 75 74 72 71 71 71 71 70 69 67 64 61 58 58 56 52 52 55 55 49 42 44 51 49 45 44 42 41 40 38 36 33 29 27 25 24 25
61 61 62 63 64 64 66 68 70 72 73 75 77 80 82 82 82 82 83 86 90 93 96 99 102 104 105 104 104 105 107 109 110 110 109 109 109 108 108 108 107 105 102 100 98 95 91 87 85 83 81 80 77 74 74 75 74 71 72 71 65 61 62 62 63 60 58 59 59 55 47 43 49 53 49 44 43 42 41 40 38 36 34 33 30 27 26 26
56 55 55 56 57 58 59 61 63 65 68 70 73 76 79 81 81 81 81 82 85 88 91 94 98 102 103 104 104 105 107 108 110 111 110 110 110 110 109 108 107 106 105 104 102 98 93 89 88 88 86 83 80 79 79 78 74 74 73 68 62 64 68 67 65 63 61 59 57 52 47 46 52 53 48 44 43 42 41 39 39 38 37 36 33 30 28 27
52 51 50 50 50 52 53 54 56 59 61 64 67 70 74 76 77 79 80 81 82 83 87 90 93 97 100 102 104 106 108 109 110 111 111 111 111 111 111 109 108 106 106 106 105 101 95 91 92 91 86 84 84 84 84 82 79 78 74 67 68 73 73 68 66 65 61 57 55 53 49 49 53 52 48 45 43 42 41 41 40 40 38 38 36 32 30 29
47 48 47 46 46 46 47 49 51 53 56 58 61 64 68 70 72 74 76 79 80 81 83 86 89 93 97 99 102 105 108 109 110 111 111 111 111 112 112 111 110 107 106 105 104 102 98 94 95 94 88 87 88 88 88 86 82 80 74 72 76 76 71 68 66 63 59 56 56 55 51 51 53 52 49 47 44 44 44 43 42 40 39 39 38 35 32 30
43 45 45 44 44 43 44 45 46 49 51 53 55 57 61 64 66 68 71 74 77 79 81 84 86 89 93 96 100 103 106 109 110 111 112 111 111 111 112 112 111 110 108 106 104 102 99 97 98 98 94 92 93 93 89 85 81 79 76 77 78 75 71 69 67 64 62 59 58 58 54 53 54 54 52 49 47 47 46 43 41 41 42 42 40 36 33 32
39 43 44 42 41 42 43 44 44 45 47 49 50 52 55 57 59 63 66 69 72 74 77 80 83 86 89 93 97 101 104 106 109 112 112 111 111 110 111 112 112 111 110 107 105 102 99 98 100 101 98 96 97 94 88 83 81 80 78 78 77 74 72 71 69 67 65 62 60 60 56 54 56 57 55 51 50 48 46 43 42 42 44 44 42 38 35 33
36 41 44 43 40 40 41 42 42 42 44 45 46 48 50 52 53 56 59 63 67 69 72 76 79 82 85 89 94 98 101 104 107 111 112 112 111 111 111 111 111 111 111 109 107 103 100 98 100 103 101 99 99 94 88 86 85 83 81 80 78 75 74 74 71 67 65 62 60 59 57 58 61 60 56 53 51 48 45 43 43 44 45 45 43 41 37 35
35 37 42 43 41 41 41 41 41 41 41 42 42 43 45 47 49 51 52 56 61 64 67 70 74 78 81 84 89 95 99 102 105 109 111 112 112 112 112 111 111 111 111 110 109 106 102 98 99 102 102 100 99 95 91 89 87 86 84 82 81 80 78 76 70 66 65 62 60 59 57 61 64 61 56 53 51 48 45 44 44 44 45 46 45 43 39 37
40 37 39 40 39 39 40 40 40 40 39 39 39 40 41 43 45 47 48 50 54 58 61 65 69 74 77 80 84 90 97 101 104 107 111 112 113 113 113 111 111 110 110 110 110 107 104 100 99 101 101 99 99 97 95 93 91 90 87 85 85 83 80 75 70 68 69 65 62 59 58 63 64 58 54 53 51 49 45 44 44 44 45 46 46 45 42 39
43 40 38 38 38 38 38 38 39 39 37 37 37 37 38 40 42 43 44 46 49 52 55 59 64 69 72 75 80 85 92 98 102 106 109 111 112 113 113 112 111 110 109 110 109 107 105 103 101 102 103 102 102 101 99 99 97 96 92 90 87 84 80 78 75 75 73 68 64 61 61 66 64 57 54 52 50 47 44 44 45 45 46 47 47 47 44 41
43 41 38 35 35 36 36 37 38 38 37 37 36 35 35 36 38 40 40 42 44 47 49 53 57 62 66 70 75 80 87 93 98 103 107 109 111 112 112 112 111 109 109 109 108 106 105 104 103 105 106 106 105 103 102 102 101 98 94 91 87 84 82 80 78 77 72 68 65 62 63 68 66 59 56 54 51 48 46 45 45 46 49 49 48 48 45 42
39 39 38 35 33 33 34 35 36 37 37 37 36 35 34 33 35 37 37 38 40 43 46 49 52 56 61 66 70 76 81 87 93 99 103 107 110 111 111 111 110 109 108 108 107 106 105 104 104 106 107 106 104 102 100 100 99 96 93 90 87 85 83 81 79 75 69 68 65 61 65 70 66 59 58 56 53 51 49 48 48 49 50 50 49 48 46 44
37 35 36 35 32 31 31 31 33 34 35 36 35 34 34 32 32 33 33 34 37 40 42 45 48 52 57 62 67 72 77 81 87 93 98 103 108 109 110 110 109 108 106 107 107 106 105 104 103 105 107 107 104 101 99 98 96 93 91 90 88 86 84 82 78 72 69 69 65 63 69 72 65 60 58 56 54 52 50 49 50 51 51 51 50 49 47 45
36 34 33 32 31 30 29 30 30 31 32 33 34 33 32 32 31 32 31 30 33 36 38 41 44 48 52 57 61 67 72 76 80 86 92 99 105 108 108 108 108 106 105 106 106 105 104 103 102 103 106 107 105 102 100 98 95 92 91 90 89 87 85 81 76 72 70 69 66 66 71 72 67 63 60 58 55 52 50 49 51 52 51 51 50 49 47 45
35 34 32 31 31 30 30 30 30 30 31 31 31 31 30 29 29 31 30 28 29 33 35 37 40 44 48 52 57 62 67 71 75 80 86 94 101 105 106 107 106 104 104 105 106 105 103 102 100 101 103 105 105 104 102 98 96 93 92 91 90 87 84 79 75 73 71 69 69 71 72 72 70 66 62 60 57 54 51 50 51 51 50 50 50 49 48 45
35 34 33 33 33 32 32 32 32 31 31 30 29 28 26 26 26 27 29 27 27 30 33 35 36 40 44 48 53 58 63 68 71 74 81 88 95 100 103 104 104 103 102 103 104 104 102 101 99 99 101 104 106 105 103 100 97 96 95 92 89 85 82 78 76 75 74 72 73 73 72 73 72 67 62 60 58 55 53 52 51 50 50 51 51 49 48 45
35 34 33 33 34 35 35 34 34 34 33 31 29 27 25 23 22 23 25 26 24 26 30 32 34 36 40 44 49 55 61 65 67 70 76 83 89 94 99 102 103 101 101 101 103 103 102 100 98 98 100 104 105 105 104 102 101 100 97 92 88 85 83 81 79 78 76 75 75 73 71 72 72 67 62 60 58 57 54 53 53 51 51 53 52 50 48 45
35 34 33 34 35 36 36 36 36 36 35 33 31 28 26 23 20 20 21 22 22 23 26 30 31 33 36 41 45 51 57 60 63 66 71 77 84 89 94 99 101 100 100 100 101 101 101 100 97 97 100 103 104 104 104 104 104 102 98 92 88 86 85 83 81 79 77 76 75 72 70 72 72 67 62 60 60 58 55 54 52 51 53 55 53 50 48 45
Wind_Direction
258 258 259 260 258 256 254 253 253 254 254 253 251 249 248 248 248 247 245 242 239 236 233 228 228 231 231 223 213 207 207 210 215 216 214 216 219 221 222 225 227 229 231 233 235 237 238 240 241 242 243 244 245 247 249 250 252 254 255 256 258 259 260 261 263 263 264 267 270 271 271 273 276 281 284 286 289 293 296 298 299 301 303 308 313 316 317 319
257 258 258 259 259 257 254 253 253 253 254 254 252 251 249 248 248 248 248 245 242 238 236 233 229 229 232 231 224 215 211 213 218 217 212 216 220 220 221 222 225 227 230 232 234 236 238 239 241 242 244 245 246 247 249 250 252 254 255 256 257 258 259 260 262 263 264 266 268 270 272 274 277 280 282 284 287 291 294 296 297 299 303 309 313 316 318 321
257 257 258 258 258 257 255 253 252 252 253 253 253 252 251 249 248 248 248 248 246 241 237 236 233 230 230 233 231 224 217 216 221 218 208 214 221 222 223 223 224 226 228 231 233 234 236 238 240 241 242 244 245 246 247 249 250 252 253 255 256 257 257 259 261 263 263 264 266 269 273 275 277 279 281 283 286 289 291 295 298 301 306 311 314 317 320 323
256 257 257 258 258 257 255 254 252 252 252 253 253 253 252 251 249 248 248 248 249 246 241 237 235 233 231 231 233 231 226 223 225 219 206 211 220 222 225 225 224 226 227 230 232 234 235 236 238 239 240 242 243 245 246 247 248 249 250 252 253 254 256 258 261 262 262 263 264 267 270 272 274 275 275 278 282 285 290 296 299 302 307 312 316 320 322 327
256 256 257 257 257 256 254 254 253 252 251 252 252 252 252 252 251 250 249 247 248 249 246 241 237 235 234 232 231 232 231 230 231 223 208 211 221 222 224 225 225 227 227 227 231 235 235 235 236 238 239 240 242 242 243 244 245 246 247 248 250 252 255 257 260 262 262 263 264 266 266 267 267 263 263 270 277 282 290 296 298 304 310 315 319 321 324 331
256 257 257 257 256 255 254 253 253 252 251 251 252 252 252 252 252 251 250 249 248 248 249 247 242 238 236 235 232 231 232 234 235 229 216 213 221 226 226 223 222 227 227 225 227 233 234 234 236 237 238 239 240 240 241 242 243 244 245 246 248 249 252 256 258 260 262 263 264 264 263 261 258 256 259 265 271 280 290 294 299 307 314 319 322 323 327 334
257 257 257 257 256 254 253 252 252 252 252 252 252 252 252 252 252 252 251 250 249 248 249 249 247 243 239 237 235 233 232 233 235 234 226 218 219 226 230 225 220 225 228 225 225 230 232 232 233 234 236 238 239 240 241 242 242 244 245 246 247 247 248 250 253 255 258 260 259 258 258 255 252 254 259 264 273 284 290 294 302 311 316 321 323 324 329 338
257 257 257 257 256 254 253 252 252 252 252 252 252 252 252 252 251 252 252 251 251 250 249 249 249 247 244 240 237 235 234 233 235 236 232 225 222 225 230 230 223 222 226 227 227 229 231 231 229 230 233 235 235 238 240 240 241 243 244 244 244 244 244 243 244 244 248 253 251 249 249 248 248 254 263 273 282 287 290 296 305 312 316 322 324 325 330 340
258 258 257 257 256 254 253 252 252 252 252 251 252 252 252 252 251 251 251 252 251 251 251 250 250 249 247 244 240 238 237 235 235 235 234 231 227 226 229 232 229 225 225 226 227 229 231 231 229 230 233 233 232 233 236 236 235 236 239 238 237 237 237 236 235 232 236 243 244 243 245 245 248 259 271 280 284 285 290 299 306 312 316 322 325 326 331 340
259 258 258 257 256 255 254 253 252 251 251 251 251 251 251 251 251 251 251 251 251 251 251 251 251 250 248 246 243 241 241 238 236 235 234 234 232 228 228 231 233 231 229 227 228 230 231 231 230 232 235 234 231 231 233 230 226 228 230 232 230 228 229 230 229 228 229 235 240 242 245 248 254 264 273 278 280 284 291 299 305 311 316 322 325 326 332 339
259 259 258 258 257 256 255 254 253 252 251 251 250 250 250 250 250 250 250 250 251 251 251 251 251 251 250 248 244 243 244 241 238 236 234 234 235 232 228 229 232 233 233 231 230 230 231 230 229 231 234 234 232 233 235 227 219 224 225 227 227 224 226 228 228 228 227 230 237 243 248 252 258 265 270 273 279 285 293 299 304 310 316 322 325 327 333 337
260 260 259 259 258 257 256 255 254 253 252 251 250 250 250 249 250 249 249 250 250 250 250 250 250 251 251 249 245 244 245 243 241 239 235 234 236 236 231 230 232 233 235 234 233 232 231 230 229 232 232 234 236 237 238 228 219 225 226 226 226 225 226 226 227 228 228 231 236 245 252 257 259 263 268 273 280 286 292 298 302 309 316 321 324 326 331 334
260 260 260 259 258 258 257 256 255 254 253 252 251 250 250 249 249 249 249 249 249 250 250 250 250 250 251 250 247 245 246 244 243 240 236 234 237 239 236 232 233 234 234 234 234 234 234 232 230 231 231 234 238 239 240 232 223 226 228 227 227 228 227 225 227 230 230 231 236 246 255 259 259 261 268 275 280 284 289 294 299 307 314 319 323 325 327 330
260 260 259 259 258 258 257 257 256 255 254 253 252 251 250 250 250 249 249 249 249 249 249 249 249 249 250 250 248 247 247 245 244 241 238 236 237 240 239 235 233 234 234 233 234 235 235 234 233 231 231 233 235 238 241 238 230 228 230 230 229 230 229 226 229 232 234 233 235 245 255 261 261 262 267 273 276 280 285 291 296 303 312 317 321 322 324 327
261 260 260 259 258 258 257 256 256 255 254 253 252 252 251 251 250 250 249 249 248 248 248 248 249 249 250 250 248 247 247 246 245 244 241 238 236 238 239 237 234 234 235 233 232 234 235 236 236 234 231 231 233 238 241 240 237 234 234 233 232 232 230 229 231 234 236 236 237 243 255 262 261 260 263 268 272 276 282 288 295 302 311 316 319 320 321 325
262 261 260 259 259 258 257 256 256 255 254 253 252 252 251 251 251 250 249 249 248 248 248 248 248 248 249 250 248 246 247 247 246 245 244 239 235 235 237 239 236 233 234 234 232 233 234 237 238 236 234 232 233 236 239 240 241 239 237 235 233 233 232 231 233 235 238 240 239 241 251 262 263 260 258 263 268 274 280 287 294 301 309 315 316 318 318 321
262 261 260 259 259 258 258 257 256 255 254 253 253 252 251 250 250 250 249 248 247 247 247 247 247 247 248 249 248 245 245 247 247 246 246 242 237 234 235 238 238 235 234 234 235 234 235 237 238 237 236 235 234 235 238 240 240 239 238 236 235 235 235 236 235 235 238 241 241 239 246 258 264 262 257 258 265 272 279 284 291 298 305 311 314 316 317 318
261 261 260 259 258 258 258 257 256 256 255 254 253 252 251 250 250 250 249 247 247 247 246 247 247 247 247 248 247 245 244 245 246 246 246 244 240 236 235 236 238 238 236 235 236 235 235 236 237 238 238 238 237 237 237 237 236 237 239 239 238 237 237 240 240 238 238 240 241 238 238 251 262 264 260 256 262 271 277 282 288 294 300 306 311 314 315 315
261 261 260 259 258 258 257 257 256 256 255 254 253 252 251 251 250 250 249 247 247 246 246 246 246 246 246 246 246 245 244 243 244 246 246 245 242 238 236 235 237 238 237 236 236 236 235 236 237 239 240 239 237 236 236 236 236 237 240 242 242 239 237 239 241 239 237 238 239 235 233 242 254 262 262 258 260 268 273 279 285 289 294 300 306 311 311 310
262 261 260 259 258 257 257 256 255 255 255 254 253 252 252 251 251 251 249 247 247 246 245 245 246 246 246 245 244 244 244 243 243 244 246 246 243 241 238 235 236 238 238 237 236 235 235 236 237 239 239 238 237 236 237 238 237 239 241 243 243 242 239 238 239 239 238 237 237 235 232 237 247 256 261 260 258 264 270 275 279 284 288 294 302 306 305 306
264 263 262 261 259 258 257 256 255 254 254 254 253 252 252 251 251 251 250 248 246 247 246 245 245 246 246 245 244 243 244 243 242 242 243 245 244 242 240 237 236 237 238 237 234 233 234 235 238 239 238 238 238 238 238 239 239 239 241 242 243 244 242 240 239 238 238 238 238 237 233 235 243 250 257 260 258 262 267 270 274 280 284 289 297 300 300 301
264 264 263 262 261 259 258 257 256 255 254 253 253 252 251 251 250 251 251 249 246 246 246 245 245 245 246 246 244 242 243 243 242 240 240 242 243 242 241 238 236 236 237 236 234 233 233 234 237 238 237 237 238 238 238 239 239 238 240 242 242 243 242 241 240 238 238 239 239 238 235 236 242 248 257 260 260 261 264 267 271 276 280 286 292 295 297 299
265 264 263 262 262 260 259 258 257 256 255 254 253 252 251 250 250 250 250 250 248 246 245 245 245 245 245 246 244 241 242 243 243 241 240 240 240 240 240 238 236 235 236 236 235 233 231 233 235 234 234 236 237 237 237 238 239 239 239 241 241 242 241 240 239 238 238 240 240 241 239 239 244 251 258 261 259 260 264 267 269 271 277 282 288 292 295 297
265 264 263 263 262 261 260 259 258 257 255 254 253 252 251 250 249 249 249 249 249 247 245 244 244 245 245 245 244 242 241 242 242 241 240 239 239 239 239 238 236 235 235 235 235 233 231 234 235 234 234 235 236 237 238 239 239 239 238 239 240 240 240 239 238 237 238 240 242 242 241 240 243 248 255 258 258 259 263 266 267 270 274 278 283 289 294 296
265 264 263 262 262 261 260 259 258 257 256 255 254 253 252 250 249 249 248 248 248 248 247 245 244 244 244 245 245 242 241 242 242 241 240 240 239 238 238 237 237 236 235 233 233 233 233 235 236 234 234 235 236 237 238 239 240 240 239 239 239 238 238 239 238 237 238 241 242 242 241 240 241 244 250 257 259 259 262 265 267 269 271 274 280 287 292 295
266 264 263 261 261 260 259 258 258 257 256 255 254 253 252 251 250 249 248 247 247 247 247 246 245 243 243 243 244 243 242 241 242 241 240 240 239 238 237 237 236 236 235 233 231 231 234 236 236 234 235 236 236 236 237 238 239 240 240 239 239 239 239 240 238 236 237 239 240 241 241 240 241 244 250 256 259 259 260 264 266 267 268 273 280 287 292 294
270 267 265 263 261 260 260 258 257 257 256 255 254 253 252 251 250 249 248 247 246 246 245 245 245 244 242 242 242 243 243 242 242 241 240 240 241 240 239 238 237 237 237 235 231 231 235 237 236 235 236 236 236 236 236 236 236 237 237 237 239 240 240 240 238 236 235 237 239 240 241 240 240 243 248 253 258 260 259 259 261 264 268 274 281 287 291 292
272 270 268 266 263 262 260 260 258 257 256 255 254 253 251 251 250 249 248 247 246 246 245 244 244 244 243 242 241 241 242 243 243 241 240 240 241 240 240 239 238 237 237 236 233 231 234 236 235 234 234 234 234 235 234 233 233 235 236 236 238 239 240 240 238 236 236 237 238 239 240 240 239 241 246 252 257 259 257 256 257 263 269 276 281 286 290 291
274 273 271 269 267 264 262 261 260 258 257 255 254 253 251 250 249 248 248 247 246 246 245 244 243 243 242 242 241 240 240 241 243 242 240 240 240 239 238 238 238 237 237 236 233 232 234 234 233 233 233 233 233 233 234 232 232 235 236 235 237 238 240 241 239 237 237 237 238 239 239 238 237 240 245 250 253 255 256 258 260 263 268 273 278 285 290 289
276 275 274 272 270 268 265 263 262 261 259 257 255 253 252 250 248 247 247 246 245 245 245 244 243 243 242 241 241 240 239 239 241 242 241 239 239 239 237 236 236 236 236 235 234 234 234 234 234 233 232 232 233 234 234 232 232 234 235 235 236 237 239 240 239 237 238 238 238 239 238 237 237 239 241 245 248 253 258 261 262 263 266 270 276 282 285 285
278 276 275 274 273 271 269 266 264 262 261 259 256 254 252 251 249 247 246 245 244 244 244 244 243 242 242 241 240 239 239 238 239 240 241 240 239 238 237 236 235 234 235 234 233 234 235 235 235 233 232 232 233 234 234 233 233 236 237 236 236 237 238 240 239 239 240 237 237 238 236 235 236 237 237 240 246 251 256 260 262 263 265 268 272 277 280 279
280 278 277 275 274 272 271 269 267 265 263 261 259 256 254 251 249 248 246 245 243 243 243 243 242 242 241 241 240 239 238 238 238 238 239 239 238 238 237 237 236 235 234 234 234 234 235 235 235 233 232 233 233 234 235 234 235 237 238 238 238 239 240 242 242 242 240 236 236 237 234 232 234 236 236 238 244 248 252 258 262 264 265 266 269 273 275 273
283 281 278 276 274 272 271 269 267 265 263 262 261 259 256 253 250 248 246 245 243 242 242 242 241 241 241 240 240 240 239 238 237 236 237 238 238 238 238 238 237 236 235 234 234 233 233 234 234 233 233 234 234 235 236 236 236 238 239 239 239 240 241 243 244 242 238 236 237 236 231 229 233 237 237 237 242 246 250 256 260 263 265 265 264 266 269 267
286 283 280 278 275 273 270 268 266 264 262 261 260 259 257 255 252 248 246 245 244 241 240 240 240 239 239 239 238 238 238 238 237 236 236 237 237 237 237 237 236 236 234 234 233 233 232 233 234 234 234 235 234 235 236 235 235 236 237 237 237 238 240 240 240 238 234 233 234 234 231 229 234 239 238 238 242 246 250 254 257 261 264 264 262 263 263 262
290 287 283 280 277 274 271 268 266 264 262 260 258 257 256 256 254 250 247 245 244 242 240 239 239 238 237 237 237 237 237 237 237 236 235 235 236 236 236 236 235 235 234 233 233 232 232 233 233 233 232 232 232 233 234 234 234 234 235 236 237 238 238 238 238 236 234 233 235 235 232 231 236 240 240 241 244 246 249 253 256 259 261 261 261 262 262 259
294 290 286 283 280 276 273 270 267 265 262 260 258 256 255 254 253 252 249 246 244 242 240 238 238 238 237 235 235 235 236 236 236 236 235 234 234 235 235 235 235 234 234 233 233 232 231 231 232 232 231 231 231 230 231 232 232 233 234 235 236 237 236 235 236 236 235 235 238 238 235 234 238 242 243 243 244 247 250 252 254 256 258 259 260 260 262 259
299 295 291 288 284 280 276 273 269 266 263 261 258 257 255 254 252 251 250 248 245 242 240 238 236 236 236 235 233 233 234 235 235 235 234 233 233 233 234 234 234 233 233 233 233 232 230 230 232 233 232 233 233 232 231 230 230 231 231 231 232 233 234 234 235 236 236 237 239 239 236 236 240 243 243 244 245 247 248 249 251 254 256 258 259 259 262 260
305 301 299 295 291 286 282 278 274 270 265 262 259 257 256 254 253 251 249 248 246 243 241 239 236 234 234 234 233 232 232 233 234 234 234 233 232 232 232 233 233 233 232 232 232 231 230 229 231 232 230 231 233 233 232 231 230 230 230 229 230 232 233 234 235 237 237 237 239 240 237 237 240 242 242 243 243 244 245 247 250 253 255 256 258 260 261 260
310 306 303 300 297 294 289 284 279 275 270 266 262 259 256 255 253 251 249 247 245 243 241 239 237 234 232 232 232 231 230 231 232 233 233 232 231 231 231 231 232 232 232 232 231 230 229 228 230 231 229 229 231 232 232 233 233 233 231 231 232 233 233 234 234 234 234 234 235 237 237 237 240 241 241 241 241 242 244 247 250 252 254 255 257 259 260 259
315 310 305 301 299 296 293 289 285 280 276 272 268 264 260 256 253 251 249 248 246 243 241 240 238 235 231 229 230 230 229 229 230 231 232 232 231 230 230 230 230 231 231 231 230 229 228 226 228 230 229 229 230 231 231 232 234 234 234 235 236 235 236 236 235 235 235 233 234 236 236 237 238 240 240 240 240 242 244 246 248 250 253 256 258 259 259 259
321 315 309 305 303 299 296 293 290 287 283 278 274 269 265 261 256 252 249 248 246 244 241 240 238 236 232 228 228 229 228 227 228 230 230 231 231 230 229 228 229 229 230 230 229 228 227 226 227 229 229 229 230 230 230 230 231 232 232 233 235 235 236 236 236 237 238 237 237 239 238 238 239 240 240 240 241 242 243 244 246 249 253 256 259 259 259 258
326 321 313 310 309 305 301 298 296 293 290 286 281 275 270 265 260 256 252 248 246 243 242 240 238 236 233 229 226 227 227 226 226 227 229 229 229 229 229 227 227 227 228 228 228 227 226 225 226 228 229 229 229 229 228 228 230 231 231 231 232 232 233 234 235 236 238 237 237 239 240 240 241 241 241 241 241 241 241 242 245 248 252 256 259 260 260 257
327 324 318 314 313 309 304 302 300 297 294 290 286 280 274 268 263 258 254 250 247 243 241 239 238 236 234 231 227 225 225 225 224 225 226 227 227 228 228 227 226 226 226 227 227 226 225 224 225 228 228 228 228 228 227 227 227 229 230 230 231 232 232 233 232 233 234 233 233 234 236 239 241 240 240 241 241 241 241 241 243 247 251 255 258 259 259 257
327 325 322 320 318 314 310 307 303 300 298 294 290 284 278 273 267 261 255 251 248 245 241 238 237 236 234 232 229 226 224 224 223 223 224 226 226 227 227 226 225 224 224 225 226 225 224 222 222 225 227 226 226 225 225 226 226 226 227 228 230 231 231 231 231 231 231 231 231 231 233 236 237 236 236 237 238 239 239 239 241 245 249 252 255 257 258 257
328 326 325 324 322 319 316 312 309 306 303 299 295 289 283 277 271 265 259 254 249 246 243 238 236 235 234 232 230 228 225 224 223 223 223 224 226 226 226 226 224 223 222 224 224 224 223 222 221 223 226 226 226 225 225 226 226 226 226 227 228 229 230 231 232 232 232 232 232 231 233 237 238 236 236 235 235 235 235 236 239 242 245 249 253 256 257 256
332 329 328 328 326 325 323 320 316 312 309 304 300 295 289 282 274 268 261 256 251 246 242 239 235 233 232 231 230 228 226 224 223 222 222 223 224 225 225 225 224 222 221 221 222 222 222 221 220 221 224 226 227 227 227 227 228 227 226 226 227 228 229 230 231 233 233 233 233 232 233 237 238 237 237 237 236 236 235 236 238 240 244 248 251 254 255 253
337 335 333 331 330 329 327 324 320 316 313 309 305 300 295 289 282 274 265 257 252 248 242 239 235 232 230 229 229 228 227 225 222 222 221 222 223 224 224 224 224 222 219 219 220 221 221 220 219 220 223 225 226 227 227 228 228 227 226 226 227 227 228 229 230 231 232 233 233 232 234 238 238 236 236 237 237 237 237 238 240 242 245 248 251 252 252 250
342 341 338 336 334 333 332 330 326 322 319 314 309 305 300 295 288 281 272 261 254 250 244 239 236 232 230 229 228 228 228 226 223 221 220 221 222 223 223 223 223 221 219 218 219 219 219 219 217 218 221 224 225 226 226 227 227 227 226 226 226 226 227 228 228 228 229 231 231 231 234 237 237 235 235 235 235 235 236 238 241 244 246 249 251 251 249 246
346 344 343 341 340 339 338 337 334 329 324 319 314 310 304 298 291 285 277 267 258 253 248 241 236 233 230 228 227 227 228 227 224 221 220 220 220 222 222 223 222 221 218 217 217 217 217 217 216 216 219 222 223 224 225 226 226 226 225 225 225 225 226 226 226 225 226 228 229 229 231 235 236 234 234 235 235 235 234 236 240 244 247 249 249 249 247 244
349 347 347 347 346 346 344 343 341 336 330 325 319 314 308 301 294 287 280 271 262 256 251 245 238 233 230 227 226 225 226 226 224 221 219 219 219 220 221 222 222 220 217 216 216 216 215 215 214 214 217 220 221 222 223 224 224 224 224 224 224 224 224 224 224 224 223 224 226 228 230 233 235 234 234 235 236 236 235 235 238 241 244 245 246 246 245 243
352 351 352 353 352 351 350 350 347 342 337 332 327 322 317 308 299 290 282 275 266 258 253 248 241 235 231 227 225 224 225 225 224 221 218 218 218 218 219 220 220 219 217 215 214 214 213 213 213 212 215 218 219 221 222 222 222 223 223 223 223 223 223 222 222 223 222 222 224 226 229 232 235 234 233 234 235 236 235 236 237 239 241 242 242 242 242 242
355 355 357 357 356 355 354 354 352 349 344 340 336 330 325 318 307 295 285 277 269 260 254 249 243 236 232 228 225 224 224 224 224 222 219 217 217 217 217 218 219 218 216 214 212 212 212 212 211 211 213 216 218 219 220 221 221 222 222 222 221 221 221 221 221 222 222 223 224 225 227 231 234 233 232 233 234 235 235 236 237 237 238 240 240 239 239 240
Height
10951 10951 10952 10952 10953 10954 10954 10955 10956 10956 10957 10958 10959 10960 10960 10961 10961 10962 10963 10963 10964 10964 10964 10965 10965 10965 10965 10966 10966 10967 10967 10968 10967 10968 10969 10970 10970 10971 10972 10973 10974 10975 10976 10977 10978 10978 10980 10981 10982 10984 10986 10987 10988 10988 10989 10991 10991 10992 10994 10995 10996 10996 10996 10996 10998 10999 10997 10996 10997 10998 10999 10999 10999 10999 10998 10998 10998 10997 10996 10995 10995 10994 10993 10991 10989 10987 10985 10982
10946 10947 10948 10948 10949 10950 10951 10951 10952 10953 10954 10954 10955 10956 10957 10958 10959 10959 10960 10960 10961 10962 10962 10963 10963 10964 10964 10964 10965 10965 10966 10966 10966 10966 10967 10968 10968 10968 10969 10970 10971 10972 10974 10974 10975 10976 10977 10978 10980 10981 10983 10984 10985 10986 10987 10988 10989 10990 10991 10992 10993 10994 10994 10993 10995 10996 10996 10995 10995 10995 10996 10997 10998 10997 10997 10997 10996 10996 10995 10995 10994 10994 10992 10990 10989 10986 10984 10981
10942 10943 10943 10944 10945 10946 10947 10947 10948 10949 10950 10951 10952 10953 10953 10954 10955 10956 10957 10957 10957 10958 10959 10960 10961 10961 10962 10962 10963 10963 10964 10965 10964 10965 10966 10966 10966 10966 10967 10968 10969 10970 10971 10971 10972 10973 10974 10975 10977 10978 10979 10981 10982 10983 10984 10985 10986 10987 10989 10990 10991 10991 10991 10991 10992 10994 10994 10995 10994 10994 10994 10995 10996 10996 10995 10995 10995 10994 10994 10994 10994 10993 10992 10990 10988 10985 10983 10980
10937 10938 10938 10939 10940 10941 10942 10943 10944 10945 10946 10947 10948 10949 10950 10951 10952 10952 10953 10954 10954 10954 10956 10957 10958 10958 10959 10960 10960 10961 10962 10963 10962 10963 10964 10965 10965 10965 10965 10966 10967 10968 10968 10969 10970 10970 10971 10973 10973 10975 10976 10977 10979 10980 10982 10983 10984 10985 10986 10987 10988 10989 10989 10989 10990 10991 10992 10993 10994 10994 10993 10994 10995 10995 10993 10993 10994 10994 10994 10993 10993 10992 10991 10989 10987 10984 10981 10979
10931 10932 10933 10934 10935 10936 10937 10938 10939 10940 10941 10942 10943 10945 10946 10946 10947 10948 10949 10950 10951 10951 10951 10953 10954 10955 10956 10957 10958 10959 10960 10960 10959 10960 10962 10963 10963 10963 10963 10964 10965 10965 10966 10967 10968 10968 10969 10970 10971 10972 10974 10975 10976 10978 10979 10980 10981 10982 10983 10985 10986 10986 10987 10987 10988 10988 10989 10991 10992 10992 10992 10993 10994 10994 10993 10993 10994 10993 10993 10993 10992 10991 10990 10988 10985 10983 10981 10978
10926 10927 10928 10928 10929 10930 10932 10933 10934 10935 10936 10937 10939 10940 10941 10942 10943 10944 10945 10946 10947 10948 10948 10948 10950 10952 10953 10954 10955 10956 10957 10957 10956 10957 10960 10961 10961 10961 10961 10962 10963 10963 10963 10965 10966 10965 10966 10968 10969 10970 10971 10972 10974 10975 10976 10977 10978 10979 10981 10982 10984 10985 10985 10985 10986 10986 10986 10989 10990 10990 10990 10991 10992 10993 10992 10992 10993 10992 10992 10992 10991 10990 10988 10987 10984 10982 10980 10978
10920 10921 10922 10923 10924 10925 10926 10927 10928 10930 10931 10932 10934 10935 10937 10938 10938 10939 10940 10941 10943 10944 10944 10944 10945 10947 10948 10950 10951 10952 10954 10954 10954 10954 10956 10958 10959 10959 10959 10959 10961 10961 10961 10963 10964 10963 10964 10965 10966 10968 10969 10970 10972 10973 10973 10975 10976 10977 10979 10980 10981 10983 10983 10984 10985 10984 10984 10986 10987 10987 10988 10989 10990 10991 10990 10991 10991 10991 10990 10990 10989 10988 10987 10986 10983 10982 10980 10978
10915 10915 10916 10917 10918 10919 10920 10921 10923 10924 10926 10927 10928 10930 10931 10933 10934 10934 10935 10936 10938 10939 10940 10940 10941 10942 10943 10945 10947 10949 10950 10951 10951 10951 10952 10954 10956 10956 10956 10956 10958 10959 10960 10962 10962 10962 10962 10962 10964 10966 10966 10968 10971 10971 10971 10973 10974 10975 10977 10979 10980 10981 10982 10983 10984 10984 10984 10985 10986 10986 10987 10988 10989 10989 10988 10989 10989 10989 10989 10988 10988 10987 10986 10985 10983 10981 10979 10977
10908 10909 10910 10911 10912 10913 10914 10915 10916 10918 10920 10921 10922 10924 10926 10927 10928 10929 10930 10931 10932 10934 10935 10935 10936 10937 10938 10940 10942 10944 10946 10946 10947 10948 10949 10950 10952 10953 10953 10954 10955 10957 10958 10959 10959 10960 10959 10960 10963 10964 10965 10968 10969 10968 10969 10970 10973 10975 10976 10977 10978 10979 10980 10981 10982 10983 10983 10984 10985 10985 10986 10987 10988 10988 10987 10987 10988 10989 10989 10988 10987 10986 10985 10984 10982 10980 10978 10977
10902 10902 10903 10904 10905 10906 10907 10908 10910 10911 10913 10915 10916 10917 10919 10921 10922 10923 10925 10925 10927 10928 10929 10930 10931 10931 10933 10934 10936 10940 10941 10941 10943 10944 10945 10946 10947 10949 10950 10951 10952 10953 10955 10956 10956 10956 10957 10959 10962 10964 10965 10965 10965 10966 10966 10968 10972 10973 10974 10975 10977 10978 10979 10980 10981 10982 10983 10984 10984 10985 10985 10986 10987 10988 10987 10987 10987 10988 10988 10987 10986 10985 10984 10983 10982 10980 10978 10976
10895 10896 10896 10897 10898 10899 10900 10901 10903 10904 10906 10908 10909 10911 10913 10914 10915 10917 10918 10919 10921 10923 10923 10924 10925 10925 10927 10928 10930 10935 10936 10936 10938 10939 10941 10942 10943 10944 10947 10948 10949 10950 10951 10952 10953 10953 10955 10958 10960 10962 10962 10962 10963 10963 10962 10967 10971 10971 10972 10974 10975 10977 10977 10978 10980 10981 10983 10983 10984 10984 10984 10985 10987 10988 10987 10986 10986 10986 10986 10986 10986 10985 10983 10982 10981 10979 10978 10976
10888 10888 10889 10890 10891 10892 10892 10894 10895 10897 10898 10900 10902 10903 10905 10907 10908 10909 10911 10913 10914 10916 10917 10918 10919 10919 10920 10919 10924 10930 10930 10930 10932 10933 10935 10939 10940 10940 10942 10945 10945 10946 10947 10948 10950 10951 10953 10955 10958 10958 10958 10960 10961 10961 10960 10965 10969 10969 10971 10972 10973 10974 10974 10976 10978 10980 10981 10982 10983 10982 10982 10983 10986 10987 10986 10985 10985 10985 10985 10985 10985 10984 10982 10981 10981 10979 10977 10976
10880 10880 10881 10881 10883 10883 10884 10885 10887 10889 10890 10892 10894 10896 10897 10899 10900 10902 10904 10905 10907 10909 10910 10912 10912 10913 10913 10911 10917 10924 10924 10924 10924 10925 10931 10936 10937 10936 10938 10940 10942 10942 10943 10945 10946 10948 10950 10952 10954 10954 10957 10959 10958 10958 10959 10963 10967 10967 10968 10969 10970 10971 10971 10974 10976 10978 10980 10981 10982 10981 10980 10981 10984 10985 10984 10983 10983 10983 10984 10984 10984 10983 10982 10981 10980 10979 10978 10976
10872 10872 10872 10873 10874 10875 10876 10876 10878 10880 10881 10883 10885 10887 10889 10890 10892 10893 10895 10897 10899 10902 10903 10905 10905 10906 10906 10902 10910 10919 10917 10917 10917 10920 10927 10931 10932 10931 10931 10934 10936 10937 10938 10941 10943 10945 10946 10948 10950 10952 10955 10955 10954 10956 10957 10960 10963 10964 10964 10966 10967 10966 10969 10973 10974 10975 10977 10979 10980 10980 10978 10979 10981 10983 10983 10982 10982 10982 10983 10983 10983 10982 10981 10981 10980 10979 10977 10976
10863 10863 10863 10864 10864 10865 10866 10867 10868 10870 10872 10874 10876 10878 10880 10882 10883 10884 10886 10888 10891 10894 10896 10898 10898 10899 10898 10894 10904 10913 10909 10910 10912 10915 10921 10923 10924 10925 10925 10927 10930 10932 10933 10936 10939 10940 10943 10945 10946 10947 10949 10950 10953 10955 10955 10957 10959 10961 10962 10961 10962 10963 10967 10971 10972 10973 10974 10976 10978 10978 10977 10976 10978 10981 10982 10981 10981 10981 10982 10982 10981 10981 10981 10980 10979 10978 10977 10976
10853 10853 10853 10854 10855 10855 10857 10858 10858 10860 10862 10863 10866 10869 10870 10872 10873 10874 10875 10878 10882 10886 10888 10889 10890 10891 10889 10886 10896 10904 10903 10904 10905 10908 10912 10912 10916 10919 10920 10922 10923 10926 10928 10930 10934 10937 10940 10941 10940 10942 10944 10948 10952 10951 10951 10954 10956 10956 10956 10955 10958 10961 10965 10968 10969 10970 10972 10974 10976 10977 10977 10974 10974 10978 10980 10980 10980 10980 10980 10980 10980 10980 10980 10980 10979 10978 10976 10976
10843 10843 10843 10844 10845 10845 10846 10848 10848 10850 10852 10853 10856 10858 10861 10863 10863 10863 10864 10868 10874 10878 10879 10880 10881 10882 10880 10878 10886 10895 10897 10897 10898 10902 10902 10903 10908 10913 10915 10915 10915 10919 10923 10927 10930 10933 10936 10935 10935 10938 10941 10944 10946 10947 10949 10951 10950 10949 10949 10951 10955 10960 10963 10965 10966 10968 10970 10971 10973 10976 10976 10972 10970 10973 10977 10979 10979 10978 10979 10979 10979 10979 10979 10979 10978 10977 10976 10975
10832 10832 10832 10833 10835 10835 10836 10838 10838 10839 10841 10843 10845 10848 10850 10852 10853 10852 10852 10859 10865 10868 10870 10871 10872 10873 10871 10871 10876 10884 10890 10891 10892 10893 10893 10894 10900 10905 10908 10909 10911 10914 10919 10924 10925 10927 10930 10929 10930 10934 10937 10940 10941 10943 10944 10941 10941 10944 10945 10948 10953 10958 10961 10962 10963 10966 10968 10969 10971 10974 10975 10972 10968 10967 10972 10977 10978 10977 10977 10977 10978 10978 10978 10978 10977 10976 10975 10974
10820 10820 10820 10821 10823 10824 10825 10826 10828 10829 10830 10832 10835 10837 10839 10841 10843 10840 10840 10851 10856 10857 10861 10862 10862 10863 10860 10862 10868 10875 10882 10885 10886 10885 10884 10884 10891 10897 10900 10903 10907 10909 10913 10918 10919 10920 10922 10924 10928 10932 10932 10932 10932 10934 10934 10933 10938 10942 10943 10946 10951 10955 10958 10959 10960 10963 10965 10966 10968 10971 10973 10972 10968 10964 10967 10974 10977 10976 10976 10976 10976 10977 10977 10977 10976 10975 10974 10973
10808 10808 10808 10807 10810 10812 10812 10813 10816 10818 10818 10820 10823 10826 10829 10830 10832 10828 10829 10841 10846 10845 10851 10853 10852 10852 10849 10852 10861 10869 10872 10875 10879 10878 10875 10875 10882 10888 10891 10897 10901 10903 10906 10908 10910 10913 10916 10921 10926 10925 10922 10921 10924 10929 10930 10931 10936 10940 10941 10943 10947 10951 10953 10955 10956 10959 10961 10963 10964 10967 10971 10970 10968 10964 10963 10970 10975 10975 10975 10976 10975 10976 10976 10976 10975 10975 10973 10972
10795 10795 10795 10793 10796 10799 10799 10800 10803 10805 10806 10808 10810 10814 10817 10819 10820 10817 10818 10829 10834 10835 10840 10843 10842 10841 10839 10843 10854 10861 10862 10864 10868 10867 10866 10866 10872 10879 10883 10889 10894 10897 10896 10895 10901 10907 10913 10920 10920 10913 10911 10915 10920 10924 10926 10928 10932 10936 10937 10939 10942 10945 10947 10949 10953 10955 10957 10958 10960 10964 10968 10968 10966 10964 10962 10967 10974 10974 10974 10975 10974 10974 10974 10974 10974 10974 10973 10972
10781 10781 10782 10779 10780 10784 10785 10785 10788 10791 10793 10794 10797 10800 10804 10806 10808 10807 10807 10813 10821 10826 10828 10830 10832 10832 10829 10832 10844 10853 10853 10853 10853 10855 10857 10858 10863 10869 10872 10878 10885 10887 10884 10886 10896 10902 10911 10916 10906 10899 10905 10911 10915 10919 10921 10923 10927 10931 10933 10935 10938 10938 10940 10944 10947 10950 10952 10954 10955 10959 10964 10965 10963 10963 10961 10964 10971 10972 10972 10973 10973 10973 10972 10972 10973 10973 10972 10972
10767 10767 10768 10766 10765 10769 10771 10771 10773 10776 10778 10780 10783 10786 10789 10792 10794 10796 10796 10798 10805 10814 10817 10818 10820 10821 10821 10822 10832 10843 10843 10840 10839 10843 10847 10849 10854 10857 10860 10867 10873 10874 10875 10883 10889 10895 10905 10900 10886 10891 10903 10906 10909 10913 10915 10917 10922 10928 10929 10931 10931 10930 10934 10937 10939 10944 10948 10949 10952 10956 10961 10962 10962 10963 10960 10960 10967 10969 10969 10970 10971 10972 10971 10971 10972 10971 10971 10971
10753 10752 10753 10751 10749 10751 10755 10756 10757 10759 10762 10766 10768 10770 10774 10777 10779 10783 10785 10786 10790 10797 10802 10805 10807 10808 10811 10812 10819 10831 10833 10829 10828 10830 10835 10841 10844 10846 10850 10855 10860 10864 10870 10876 10879 10887 10893 10882 10878 10893 10900 10899 10903 10907 10910 10914 10918 10922 10924 10925 10922 10923 10927 10929 10933 10941 10945 10946 10949 10953 10957 10960 10961 10960 10956 10955 10962 10966 10965 10966 10967 10970 10970 10969 10970 10970 10970 10970
10738 10736 10736 10737 10733 10734 10738 10740 10740 10742 10745 10750 10751 10753 10757 10762 10765 10767 10771 10773 10776 10781 10784 10789 10794 10797 10801 10802 10807 10818 10821 10818 10814 10816 10826 10831 10832 10836 10840 10844 10851 10858 10862 10867 10871 10878 10880 10872 10877 10891 10892 10893 10900 10903 10907 10910 10911 10916 10919 10917 10912 10915 10919 10922 10930 10938 10941 10943 10945 10948 10953 10957 10957 10956 10953 10952 10958 10962 10962 10962 10964 10967 10968 10968 10969 10969 10968 10968
10722 10720 10719 10721 10719 10717 10720 10723 10724 10725 10727 10732 10734 10737 10741 10745 10749 10752 10756 10758 10762 10767 10768 10771 10777 10783 10790 10793 10796 10804 10808 10805 10802 10806 10817 10820 10821 10827 10831 10837 10845 10849 10851 10856 10863 10870 10870 10866 10874 10884 10885 10890 10894 10898 10902 10903 10907 10911 10910 10905 10903 10909 10915 10918 10927 10935 10938 10938 10939 10944 10950 10953 10954 10953 10952 10951 10955 10958 10959 10958 10960 10963 10965 10966 10967 10967 10967 10967
10706 10704 10702 10704 10704 10701 10703 10705 10706 10708 10709 10713 10717 10720 10724 10728 10732 10736 10739 10742 10746 10751 10752 10756 10760 10766 10777 10782 10785 10790 10791 10792 10791 10796 10806 10810 10814 10820 10825 10833 10838 10840 10841 10845 10856 10868 10863 10859 10870 10877 10878 10883 10889 10894 10894 10895 10901 10900 10894 10894 10899 10906 10909 10912 10922 10930 10933 10932 10935 10943 10947 10950 10953 10951 10949 10949 10951 10954 10954 10955 10957 10960 10962 10964 10965 10965 10965 10965
10690 10689 10686 10686 10688 10687 10687 10687 10689 10690 10692 10694 10698 10702 10707 10711 10714 10719 10722 10725 10731 10734 10736 10741 10743 10749 10760 10766 10771 10775 10777 10779 10778 10784 10796 10802 10805 10811 10818 10824 10828 10831 10830 10835 10852 10859 10850 10851 10862 10866 10869 10877 10883 10883 10880 10886 10894 10887 10883 10891 10896 10899 10902 10905 10916 10925 10926 10928 10936 10942 10944 10947 10951 10948 10946 10948 10949 10947 10946 10949 10954 10958 10960 10962 10962 10962 10962 10962
10675 10673 10671 10670 10671 10671 10672 10672 10671 10672 10674 10677 10679 10682 10688 10692 10696 10701 10705 10708 10715 10718 10719 10724 10728 10733 10743 10748 10752 10759 10766 10767 10764 10770 10784 10788 10790 10797 10806 10811 10813 10816 10818 10828 10842 10842 10838 10845 10850 10853 10862 10870 10872 10869 10870 10881 10886 10876 10877 10888 10891 10894 10898 10900 10912 10920 10921 10928 10936 10938 10940 10945 10947 10946 10946 10948 10944 10939 10939 10945 10952 10956 10958 10959 10960 10960 10959 10959
10660 10658 10656 10654 10654 10654 10656 10657 10656 10655 10656 10658 10660 10663 10668 10673 10678 10683 10687 10691 10698 10701 10701 10706 10712 10719 10726 10730 10734 10743 10752 10755 10752 10757 10767 10773 10777 10784 10792 10794 10795 10801 10808 10818 10828 10829 10831 10835 10837 10847 10858 10861 10860 10860 10864 10874 10874 10867 10873 10884 10886 10890 10893 10895 10908 10914 10918 10931 10935 10933 10937 10941 10943 10944 10946 10943 10937 10935 10937 10941 10948 10953 10955 10957 10957 10957 10956 10956
10647 10643 10641 10639 10637 10637 10638 10640 10640 10639 10639 10639 10641 10644 10648 10653 10658 10663 10669 10675 10679 10683 10684 10687 10695 10702 10708 10713 10718 10727 10736 10739 10741 10744 10749 10756 10763 10768 10773 10775 10779 10791 10798 10807 10818 10821 10822 10824 10830 10842 10849 10849 10851 10853 10858 10866 10866 10864 10871 10878 10882 10885 10887 10891 10903 10910 10919 10931 10930 10927 10932 10936 10939 10941 10941 10937 10934 10936 10936 10937 10943 10949 10952 10954 10955 10955 10954 10953
10634 10629 10627 10624 10622 10621 10621 10623 10624 10624 10624 10623 10623 10625 10628 10633 10638 10643 10651 10655 10658 10666 10667 10669 10679 10685 10689 10697 10704 10711 10719 10722 10725 10731 10733 10738 10746 10751 10756 10761 10772 10786 10793 10800 10809 10810 10811 10816 10822 10832 10838 10840 10844 10847 10853 10859 10862 10863 10867 10872 10878 10882 10884 10890 10900 10909 10919 10925 10921 10921 10926 10931 10934 10933 10933 10934 10934 10935 10935 10935 10939 10944 10948 10951 10952 10952 10952 10950
10619 10615 10611 10608 10606 10605 10606 10605 10606 10607 10607 10607 10607 10607 10609 10613 10618 10625 10630 10633 10639 10649 10650 10653 10663 10668 10671 10682 10689 10692 10699 10703 10708 10715 10718 10722 10731 10737 10744 10754 10765 10777 10786 10792 10796 10798 10803 10806 10812 10823 10831 10835 10840 10844 10850 10856 10860 10861 10863 10869 10875 10879 10883 10891 10898 10904 10912 10915 10911 10911 10918 10927 10929 10925 10927 10931 10931 10932 10934 10934 10937 10940 10944 10948 10949 10950 10949 10947
10604 10599 10595 10592 10590 10590 10590 10588 10588 10588 10590 10591 10591 10591 10591 10593 10599 10605 10610 10614 10620 10629 10633 10637 10645 10649 10653 10664 10671 10674 10680 10685 10689 10697 10704 10708 10716 10723 10731 10741 10749 10758 10771 10777 10780 10786 10795 10800 10809 10822 10829 10831 10836 10841 10846 10849 10850 10853 10857 10861 10867 10875 10881 10886 10888 10893 10901 10902 10898 10902 10915 10927 10924 10917 10921 10928 10929 10931 10933 10933 10934 10937 10940 10943 10945 10947 10946 10945
10589 10585 10581 10577 10575 10575 10574 10572 10572 10571 10573 10574 10574 10575 10575 10576 10580 10586 10592 10597 10602 10608 10615 10620 10624 10629 10636 10646 10654 10658 10662 10668 10671 10679 10689 10695 10701 10708 10715 10724 10732 10744 10757 10762 10766 10777 10788 10796 10805 10811 10815 10818 10826 10834 10835 10835 10841 10848 10849 10853 10866 10874 10875 10875 10877 10883 10890 10890 10891 10901 10916 10923 10915 10910 10918 10926 10928 10929 10930 10931 10932 10934 10936 10938 10941 10943 10943 10942
10576 10572 10568 10564 10562 10561 10559 10558 10557 10557 10557 10557 10558 10559 10559 10560 10564 10568 10574 10579 10583 10589 10596 10601 10606 10611 10618 10628 10637 10641 10644 10650 10654 10660 10671 10680 10687 10694 10700 10709 10719 10731 10742 10746 10755 10767 10780 10790 10791 10792 10802 10810 10816 10821 10820 10825 10836 10839 10840 10853 10866 10864 10859 10863 10869 10875 10881 10886 10892 10902 10912 10915 10909 10909 10917 10923 10925 10926 10927 10929 10929 10929 10932 10934 10936 10938 10939 10939
10564 10559 10556 10553 10550 10548 10546 10545 10544 10543 10543 10542 10543 10544 10543 10545 10549 10553 10557 10561 10565 10572 10577 10582 10589 10594 10600 10609 10619 10624 10627 10632 10637 10643 10653 10663 10671 10679 10686 10695 10704 10716 10726 10733 10743 10756 10772 10783 10779 10782 10799 10805 10806 10808 10808 10816 10824 10824 10834 10850 10850 10841 10846 10858 10863 10868 10878 10886 10891 10896 10905 10908 10905 10907 10914 10918 10921 10922 10923 10924 10924 10925 10927 10929 10931 10933 10935 10936
10556 10549 10545 10542 10539 10537 10534 10532 10531 10530 10529 10529 10530 10530 10529 10531 10534 10538 10541 10543 10547 10553 10558 10563 10570 10576 10583 10591 10600 10606 10610 10615 10621 10627 10635 10646 10655 10664 10673 10681 10690 10701 10711 10720 10731 10745 10763 10773 10768 10772 10787 10791 10791 10794 10797 10806 10814 10821 10833 10838 10831 10833 10846 10855 10859 10867 10876 10883 10886 10889 10897 10901 10900 10903 10908 10912 10916 10917 10917 10919 10920 10921 10922 10923 10925 10928 10930 10932
10549 10542 10537 10534 10530 10527 10524 10521 10520 10518 10517 10516 10517 10517 10517 10518 10521 10523 10525 10527 10530 10535 10540 10544 10550 10557 10567 10574 10580 10587 10593 10600 10606 10611 10618 10629 10639 10649 10659 10668 10677 10687 10697 10707 10720 10733 10750 10760 10757 10759 10772 10778 10776 10780 10791 10805 10814 10821 10827 10826 10825 10835 10845 10848 10854 10861 10867 10874 10878 10881 10889 10895 10894 10896 10901 10905 10909 10910 10912 10915 10916 10916 10916 10916 10920 10923 10926 10927
10543 10534 10529 10526 10523 10520 10516 10512 10510 10508 10506 10505 10506 10506 10505 10506 10508 10509 10511 10512 10514 10519 10524 10527 10532 10540 10550 10558 10562 10569 10577 10586 10592 10595 10602 10614 10624 10634 10643 10653 10663 10673 10683 10694 10706 10719 10735 10747 10747 10747 10758 10766 10764 10772 10791 10803 10807 10813 10820 10823 10826 10836 10841 10843 10849 10854 10859 10867 10872 10875 10882 10888 10886 10887 10893 10899 10901 10904 10908 10910 10911 10911 10909 10910 10914 10918 10921 10923
10538 10529 10519 10516 10515 10512 10508 10504 10502 10500 10497 10496 10496 10495 10494 10495 10496 10496 10498 10499 10500 10504 10509 10512 10517 10523 10531 10541 10547 10553 10561 10571 10577 10580 10588 10599 10608 10616 10626 10637 10648 10659 10669 10679 10692 10706 10722 10735 10737 10735 10746 10755 10758 10770 10785 10789 10793 10800 10808 10814 10819 10827 10832 10834 10842 10851 10857 10865 10869 10872 10878 10878 10875 10879 10888 10893 10896 10900 10904 10905 10906 10905 10904 10905 10908 10912 10917 10919
10531 10525 10514 10508 10506 10503 10499 10497 10494 10492 10490 10488 10486 10485 10484 10483 10483 10484 10487 10487 10487 10491 10495 10499 10503 10507 10514 10524 10533 10538 10544 10553 10561 10565 10571 10581 10590 10598 10609 10621 10633 10645 10656 10665 10677 10692 10707 10722 10728 10726 10736 10748 10754 10764 10771 10777 10785 10790 10797 10805 10808 10813 10818 10825 10840 10848 10851 10858 10864 10868 10872 10868 10867 10875 10883 10888 10891 10895 10899 10901 10901 10900 10900 10900 10902 10906 10911 10914
10520 10518 10511 10504 10500 10497 10492 10490 10486 10484 10483 10480 10478 10476 10474 10473 10472 10473 10475 10475 10476 10479 10483 10486 10489 10492 10499 10508 10516 10523 10528 10535 10543 10548 10554 10563 10572 10581 10592 10604 10618 10631 10643 10651 10663 10679 10694 10710 10719 10719 10727 10739 10745 10751 10757 10765 10773 10777 10785 10794 10796 10804 10813 10823 10835 10837 10838 10848 10855 10860 10863 10857 10859 10871 10879 10882 10886 10890 10895 10897 10896 10896 10895 10895 10896 10900 10905 10909
10512 10510 10506 10500 10495 10491 10487 10483 10479 10476 10475 10472 10470 10468 10466 10464 10463 10462 10464 10465 10466 10468 10471 10475 10477 10480 10487 10494 10500 10507 10513 10519 10527 10533 10540 10548 10556 10566 10576 10588 10602 10617 10629 10638 10651 10666 10681 10697 10709 10709 10712 10720 10726 10733 10740 10748 10755 10762 10771 10780 10787 10799 10808 10815 10821 10822 10829 10840 10847 10853 10853 10845 10851 10866 10872 10876 10881 10885 10890 10892 10891 10892 10891 10890 10892 10894 10899 10904
10507 10503 10501 10498 10492 10486 10481 10477 10472 10469 10466 10464 10462 10460 10459 10457 10455 10453 10455 10456 10457 10459 10460 10464 10467 10471 10476 10482 10487 10493 10499 10505 10512 10519 10527 10535 10542 10552 10563 10573 10586 10602 10616 10626 10640 10655 10668 10684 10696 10697 10697 10703 10710 10719 10728 10734 10742 10753 10764 10773 10783 10792 10799 10806 10812 10817 10828 10837 10842 10850 10847 10838 10847 10862 10866 10870 10875 10880 10884 10885 10886 10887 10886 10887 10889 10890 10895 10900
10506 10499 10494 10492 10489 10483 10478 10473 10468 10463 10459 10456 10454 10452 10451 10450 10448 10446 10446 10448 10448 10449 10450 10453 10457 10460 10465 10469 10474 10479 10485 10492 10499 10506 10516 10524 10529 10539 10549 10559 10571 10588 10604 10617 10628 10641 10654 10669 10683 10686 10688 10694 10703 10715 10724 10729 10738 10752 10762 10770 10778 10784 10792 10799 10805 10817 10829 10833 10839 10847 10839 10830 10843 10857 10860 10865 10870 10874 10878 10879 10879 10881 10881 10883 10886 10887 10891 10895
10504 10498 10492 10488 10485 10481 10476 10471 10465 10460 10455 10451 10447 10445 10443 10442 10441 10439 10439 10440 10440 10440 10442 10445 10448 10451 10454 10458 10462 10467 10472 10480 10488 10495 10505 10513 10517 10525 10536 10546 10558 10575 10593 10606 10615 10628 10642 10656 10671 10679 10682 10688 10698 10709 10718 10724 10735 10749 10758 10763 10770 10776 10783 10790 10802 10817 10824 10826 10835 10841 10829 10824 10839 10851 10853 10859 10864 10868 10872 10873 10873 10874 10876 10878 10881 10884 10887 10890
10501 10496 10491 10486 10481 10477 10473 10468 10463 10458 10453 10447 10443 10440 10438 10436 10434 10431 10431 10432 10432 10433 10435 10437 10440 10442 10446 10450 10454 10458 10462 10469 10477 10484 10493 10500 10505 10513 10524 10534 10546 10563 10581 10593 10603 10617 10631 10644 10660 10670 10674 10680 10690 10700 10708 10718 10728 10740 10749 10756 10760 10766 10774 10785 10800 10810 10813 10820 10830 10829 10820 10821 10832 10842 10847 10852 10857 10862 10867 10867 10866 10868 10871 10873 10875 10879 10882 10886
10498 10493 10488 10483 10478 10474 10470 10465 10460 10455 10451 10446 10441 10437 10434 10431 10429 10425 10424 10425 10426 10426 10427 10430 10433 10435 10438 10442 10446 10449 10453 10458 10465 10473 10481 10487 10493 10502 10513 10523 10535 10551 10568 10582 10593 10606 10620 10633 10649 10661 10666 10672 10680 10688 10698 10710 10720 10729 10737 10743 10748 10757 10768 10781 10793 10799 10805 10814 10816 10814 10814 10817 10822 10833 10841 10845 10851 10857 10861 10863 10863 10864 10867 10868 10870 10873 10877 10882
10495 10490 10485 10480 10475 10471 10466 10462 10457 10452 10448 10443 10438 10434 10431 10427 10425 10421 10419 10419 10420 10421 10421 10423 10426 10428 10431 10435 10438 10441 10444 10447 10454 10462 10469 10476 10482 10492 10502 10512 10524 10539 10556 10571 10583 10596 10610 10624 10639 10652 10658 10662 10668 10677 10688 10701 10710 10716 10722 10730 10742 10755 10766 10775 10782 10788 10795 10801 10802 10804 10811 10812 10815 10827 10838 10841 10846 10851 10855 10859 10859 10861 10862 10863 10865 10869 10872 10877
10494 10489 10484 10479 10473 10468 10464 10459 10454 10449 10444 10439 10434 10431 10427 10424 10421 10418 10415 10414 10415 10415 10415 10417 10419 10422 10424 10427 10429 10432 10434 10437 10444 10452 10459 10466 10473 10483 10493 10502 10514 10529 10545 10560 10573 10587 10601 10614 10628 10641 10647 10649 10656 10667 10678 10689 10696 10700 10709 10724 10740 10750 10756 10762 10770 10777 10785 10790 10793 10800 10808 10808 10810 10823 10834 10838 10841 10845 10850 10853 10855 10857 10858 10857 10861 10865 10868 10872
10493 10488 10483 10478 10473 10468 10463 10458 10453 10448 10442 10436 10431 10427 10423 10420 10417 10415 10412 10410 10410 10411 10410 10411 10413 10415 10417 10419 10422 10425 10427 10431 10438 10443 10450 10458 10465 10474 10483 10492 10504 10519 10535 10550 10565 10579 10592 10604 10618 10630 10635 10638 10647 10657 10667 10675 10681 10690 10703 10719 10733 10740 10745 10753 10761 10769 10777 10783 10788 10797 10804 10802 10804 10819 10830 10833 10835 10839 10844 10848 10851 10853 10853 10853 10857 10861 10864 10868